Location: Newark
(55.8372°N, 37.1596°E)
Time: 16:11:29
(UTC+00:00)

Envisat - Pass Details

Date: 26 October 2019
Orbit: 764 x 766 km, 98.1° (Epoch: 21 November)

Event Time Altitude Azimuth Distance (km) Brightness Sun altitude
Rises 15:28:44 0° 170° (S) 3,225 6.2 -12.2°
Reaches altitude 10° 15:31:03 10° 172° (S) 2,302 5.4 -12.5°
Maximum altitude 15:36:07 70° 257° (WSW) 817 3.3 -13.2°
Drops below altitude 10° 15:41:13 10° 341° (NNW) 2,318 5.7 -13.9°
Sets 15:43:33 0° 344° (NNW) 3,248 6.4 -14.3°
